Location: Newark
(16.3678°N, 77.8722°E)
Time: 09:50:06
(UTC+00:00)

Tiros 1 - Pass Details

Date: 09 December 2019
Orbit: 630 x 664 km, 48.4° (Epoch: 18 January)

Event Time Altitude Azimuth Distance (km) Brightness Sun altitude
Rises 00:16:32 0° 246° (WSW) 2,968 - -11.6°
Reaches altitude 10° 00:19:12 10° 259° (WSW) 2,052 - -11.0°
Exits shadow 00:19:14 10° 259° (W) 2,043 9.2 -11.0°
Maximum altitude 00:23:09 26° 316° (NW) 1,267 8.1 -10.1°
Drops below altitude 10° 00:27:06 10° 13° (NNE) 2,034 9.6 -9.3°
Sets 00:29:44 0° 26° (NNE) 2,937 10.6 -8.7°
